EDW144R HELX-LSZH

Flight info

Callsign EDW144R
Flight time N/A
Altitude 32000
Route NABED A727 CVO L617 NOZ L551 ANTAR UN133 RIGRO/N0451F340 UN133 GIKAS/N0455F320 UL608 FSK/N0418F240 N128 RUGAS/N0393F200 N128 RAXAD/N0451F340 DCT RAMAP DCT KOSIV DCT TIVNU DCT NEMEK DCT MAXUR DCT ROPUS DCT GIMIX DCT ERKIR L608 KPT DCT NEGRA
Aircraft A320/M-SDE3FGHIRWY/LB1

Departure

Time 2026-04-14 10:55
Airport Luxor International Airport (HELX)

Arrival

Time N/A
Airport Zürich Airport (LSZH)
Time Latitude Longitude Altitude Speed Heading
2026-04-14 10:23 25.67469 32.70209 330 ft 0 kts 297°
2026-04-14 10:45 25.67469 32.70211 332 ft 2 kts 297°
2026-04-14 10:45 25.67457 32.70237 328 ft 4 kts 295°
2026-04-14 10:45 25.67446 32.70264 328 ft 4 kts 292°
2026-04-14 10:45 25.67437 32.70292 328 ft 4 kts 285°
2026-04-14 10:46 25.67432 32.70320 332 ft 4 kts 259°
2026-04-14 10:46 25.67440 32.70337 327 ft 0 kts 207°
2026-04-14 10:50 25.67435 32.70335 332 ft 3 kts 207°
2026-04-14 10:50 25.67399 32.70315 332 ft 9 kts 207°
2026-04-14 10:50 25.67328 32.70274 328 ft 14 kts 207°
2026-04-14 10:50 25.67229 32.70219 330 ft 16 kts 206°
2026-04-14 10:51 25.67138 32.70169 330 ft 13 kts 204°
2026-04-14 10:51 25.67071 32.70199 331 ft 11 kts 117°
2026-04-14 10:51 25.67037 32.70279 332 ft 13 kts 116°
2026-04-14 10:51 25.66989 32.70372 329 ft 14 kts 140°
2026-04-14 10:52 25.66875 32.70355 328 ft 20 kts 204°
2026-04-14 10:52 25.66751 32.70299 331 ft 18 kts 203°
2026-04-14 10:52 25.66642 32.70248 329 ft 16 kts 202°
2026-04-14 10:52 25.66548 32.70204 328 ft 14 kts 202°
2026-04-14 10:53 25.66442 32.70155 330 ft 18 kts 202°
2026-04-14 10:53 25.66333 32.70105 332 ft 16 kts 203°
2026-04-14 10:53 25.66239 32.70061 328 ft 14 kts 203°
2026-04-14 10:53 25.66151 32.70020 330 ft 15 kts 202°
2026-04-14 10:54 25.66062 32.70059 330 ft 17 kts 116°
2026-04-14 10:54 25.66089 32.70170 332 ft 17 kts 32°
2026-04-14 10:54 25.66264 32.70254 331 ft 53 kts 22°
2026-04-14 10:54 25.66818 32.70512 331 ft 117 kts 22°
2026-04-14 10:55 25.67732 32.70933 336 ft 165 kts 24°
2026-04-14 10:55 25.68803 32.71449 903 ft 168 kts 23°
2026-04-14 10:55 25.69908 32.71876 1614 ft 171 kts
2026-04-14 10:55 25.71126 32.71703 1950 ft 190 kts 341°
2026-04-14 10:56 25.72456 32.71215 2184 ft 212 kts 348°
2026-04-14 10:56 25.73952 32.70818 2435 ft 236 kts 349°
2026-04-14 10:56 25.75635 32.70408 2799 ft 257 kts 349°
2026-04-14 10:56 25.77420 32.69972 3455 ft 267 kts 349°
2026-04-14 10:57 25.79252 32.69509 4151 ft 274 kts 348°
2026-04-14 10:57 25.81126 32.69020 4867 ft 280 kts 348°
2026-04-14 10:57 25.83036 32.68517 5548 ft 285 kts 348°
2026-04-14 10:57 25.84977 32.68003 6228 ft 289 kts 348°
2026-04-14 10:58 25.86954 32.67475 6888 ft 293 kts 348°
2026-04-14 10:58 25.88943 32.66940 7607 ft 295 kts 348°
2026-04-14 10:58 25.90945 32.66401 8343 ft 296 kts 347°
2026-04-14 10:58 25.92952 32.65858 9092 ft 298 kts 347°
2026-04-14 10:59 25.94974 32.65310 9819 ft 300 kts 347°
2026-04-14 10:59 25.97036 32.64753 10205 ft 315 kts 347°
2026-04-14 10:59 25.99241 32.64159 10321 ft 337 kts 347°
2026-04-14 10:59 26.01592 32.63528 10449 ft 357 kts 347°
2026-04-14 11:00 26.04049 32.62871 10796 ft 367 kts 347°
2026-04-14 11:00 26.06552 32.62200 11338 ft 371 kts 347°
2026-04-14 11:00 26.09071 32.61520 11945 ft 373 kts 347°
2026-04-14 11:00 26.11602 32.60832 12571 ft 375 kts 347°
2026-04-14 11:01 26.14142 32.60140 13177 ft 377 kts 347°
2026-04-14 11:01 26.16696 32.59446 13798 ft 378 kts 347°
2026-04-14 11:01 26.19260 32.58752 14334 ft 380 kts 346°
2026-04-14 11:01 26.21838 32.58055 14859 ft 382 kts 346°
2026-04-14 11:02 26.24430 32.57354 15341 ft 385 kts 346°
2026-04-14 11:02 26.27036 32.56649 15817 ft 387 kts 345°
2026-04-14 11:02 26.29630 32.55945 16281 ft 390 kts 345°
2026-04-14 11:02 26.32273 32.55230 16764 ft 392 kts 345°
2026-04-14 11:03 26.34933 32.54513 17243 ft 394 kts 345°
2026-04-14 11:03 26.37607 32.53791 17715 ft 396 kts 345°
2026-04-14 11:03 26.40298 32.53062 18186 ft 399 kts 345°
2026-04-14 11:03 26.43000 32.52330 18607 ft 401 kts 344°
2026-04-14 11:04 26.45713 32.51594 19025 ft 402 kts 344°
2026-04-14 11:04 26.48440 32.50854 19440 ft 404 kts 344°
2026-04-14 11:04 26.51179 32.50110 19860 ft 406 kts 344°
2026-04-14 11:04 26.53934 32.49362 20269 ft 408 kts 344°
2026-04-14 11:05 26.56698 32.48607 20673 ft 410 kts 344°
2026-04-14 11:05 26.59478 32.47845 21066 ft 412 kts 344°
2026-04-14 11:05 26.62270 32.47082 21457 ft 414 kts 344°
2026-04-14 11:05 26.65075 32.46318 21850 ft 416 kts 344°
2026-04-14 11:06 26.67895 32.45550 22243 ft 418 kts 344°
2026-04-14 11:06 26.70727 32.44780 22629 ft 420 kts 344°
2026-04-14 11:06 26.73534 32.44015 22998 ft 422 kts 344°
2026-04-14 11:06 26.76390 32.43232 23360 ft 424 kts 343°
2026-04-14 11:07 26.79264 32.42446 23690 ft 426 kts 343°
2026-04-14 11:07 26.82147 32.41658 24001 ft 427 kts 343°
2026-04-14 11:07 26.85036 32.40870 24331 ft 428 kts 343°
2026-04-14 11:07 26.87926 32.40082 24668 ft 428 kts 343°
2026-04-14 11:08 26.90827 32.39290 24993 ft 429 kts 343°
2026-04-14 11:08 26.93726 32.38496 25318 ft 430 kts 343°
2026-04-14 11:08 26.96634 32.37701 25642 ft 430 kts 343°
2026-04-14 11:08 26.99546 32.36902 25955 ft 431 kts 343°
2026-04-14 11:09 27.02463 32.36102 26260 ft 432 kts 343°
2026-04-14 11:09 27.05378 32.35301 26562 ft 432 kts 343°
2026-04-14 11:09 27.08301 32.34494 26847 ft 433 kts 343°
2026-04-14 11:10 27.14162 32.32872 27399 ft 435 kts 343°
2026-04-14 11:10 27.16114 32.32332 27578 ft 435 kts 343°
2026-04-14 11:10 27.19060 32.31520 27850 ft 436 kts 343°
2026-04-14 11:10 27.22011 32.30708 28116 ft 437 kts 343°
2026-04-14 11:11 27.24966 32.29895 28378 ft 438 kts 343°
2026-04-14 11:11 27.28885 32.28819 28809 ft 436 kts 343°
2026-04-14 11:11 27.30876 32.28269 29077 ft 435 kts 342°
2026-04-14 11:11 27.33794 32.27410 29470 ft 432 kts 341°
2026-04-14 11:12 27.36676 32.26503 29868 ft 429 kts 341°
2026-04-14 11:12 27.39500 32.25582 30225 ft 427 kts 340°
2026-04-14 11:12 27.42341 32.24647 30595 ft 424 kts 340°
2026-04-14 11:12 27.45167 32.23723 30911 ft 422 kts 340°
2026-04-14 11:13 27.47989 32.22816 31228 ft 420 kts 340°
2026-04-14 11:13 27.50795 32.21924 31565 ft 418 kts 340°
2026-04-14 11:13 27.53584 32.21041 31917 ft 415 kts 340°
2026-04-14 11:13 27.56357 32.20166 32261 ft 412 kts 340°
2026-04-14 11:14 27.59115 32.19297 32603 ft 410 kts 340°
2026-04-14 11:14 27.61854 32.18433 32935 ft 407 kts 340°
2026-04-14 11:14 27.64574 32.17570 33290 ft 405 kts 340°
2026-04-14 11:14 27.67277 32.16706 33618 ft 403 kts 340°
2026-04-14 11:15 27.69972 32.15843 33948 ft 401 kts 340°
2026-04-14 11:15 27.72620 32.14991 34026 ft 400 kts 339°
2026-04-14 11:15 27.77960 32.13273 34038 ft 399 kts 340°
2026-04-14 11:16 27.83297 32.11560 34038 ft 399 kts 340°
2026-04-14 11:16 27.88643 32.09852 34044 ft 399 kts 340°
2026-04-14 11:17 27.93979 32.08156 34043 ft 398 kts 340°
2026-04-14 11:17 27.99317 32.06451 34061 ft 398 kts 339°
2026-04-14 11:18 28.04652 32.04744 34056 ft 398 kts 339°
2026-04-14 11:18 28.10000 32.03064 34058 ft 399 kts 340°
2026-04-14 11:19 28.15347 32.01390 34049 ft 398 kts 340°
2026-04-14 11:19 28.20693 31.99722 34049 ft 399 kts 340°
2026-04-14 11:20 28.26014 31.98058 34067 ft 399 kts 340°
2026-04-14 11:20 28.31365 31.96369 34068 ft 399 kts 340°
2026-04-14 11:21 28.36719 31.94681 34063 ft 399 kts 340°
2026-04-14 11:21 28.42075 31.92998 34063 ft 399 kts 340°
2026-04-14 11:22 28.47424 31.91308 34058 ft 399 kts 340°
2026-04-14 11:22 28.52773 31.89619 34071 ft 399 kts 340°
2026-04-14 11:23 28.58122 31.87928 34060 ft 399 kts 340°
2026-04-14 11:23 28.63474 31.86238 34057 ft 399 kts 340°
2026-04-14 11:24 28.68825 31.84543 34059 ft 399 kts 340°
2026-04-14 11:24 28.74177 31.82841 34057 ft 399 kts 340°
2026-04-14 11:25 28.79531 31.81143 34068 ft 399 kts 340°
2026-04-14 11:25 28.84858 31.79464 34060 ft 400 kts 339°
2026-04-14 11:26 28.90224 31.77772 34056 ft 400 kts 339°
2026-04-14 11:26 28.95589 31.76068 34060 ft 400 kts 339°
2026-04-14 11:27 29.00956 31.74352 34064 ft 400 kts 339°
2026-04-14 11:27 29.06318 31.72618 34081 ft 401 kts 339°
2026-04-14 11:28 29.11681 31.70872 34075 ft 401 kts 339°
2026-04-14 11:28 29.17056 31.69123 34079 ft 401 kts 339°
2026-04-14 11:29 29.22392 31.67388 34079 ft 401 kts 339°
2026-04-14 11:29 29.27764 31.65648 34077 ft 401 kts 339°
2026-04-14 11:30 29.33135 31.63899 34081 ft 401 kts 339°
2026-04-14 11:30 29.38503 31.62154 34073 ft 401 kts 339°
2026-04-14 11:31 29.43876 31.60404 34073 ft 401 kts 339°
2026-04-14 11:31 29.49240 31.58648 34074 ft 401 kts 339°
2026-04-14 11:32 29.54605 31.56895 34076 ft 401 kts 339°
2026-04-14 11:32 29.59939 31.55157 34089 ft 401 kts 339°
2026-04-14 11:33 29.65339 31.53393 34085 ft 401 kts 339°
2026-04-14 11:34 29.73360 31.50753 34068 ft 401 kts 338°
2026-04-14 11:34 29.78738 31.48973 34069 ft 401 kts 338°
2026-04-14 11:35 29.84098 31.47192 34067 ft 401 kts 338°
2026-04-14 11:35 29.89465 31.45410 34079 ft 402 kts 338°
2026-04-14 11:36 29.94839 31.43635 34074 ft 402 kts 338°
2026-04-14 11:36 30.00214 31.41857 34066 ft 401 kts 338°
2026-04-14 11:37 30.05578 31.40069 34061 ft 401 kts 337°
2026-04-14 11:37 30.10496 31.37305 34058 ft 389 kts 320°
2026-04-14 11:38 30.14509 31.33162 34052 ft 387 kts 315°
2026-04-14 11:38 30.18461 31.28936 34059 ft 387 kts 315°
2026-04-14 11:39 30.22390 31.24734 34063 ft 388 kts 315°
2026-04-14 11:39 30.26341 31.20477 34076 ft 388 kts 314°
2026-04-14 11:40 30.30288 31.16220 34079 ft 388 kts 314°
2026-04-14 11:40 30.34233 31.11968 34078 ft 387 kts 314°
2026-04-14 11:41 30.38178 31.07716 34075 ft 387 kts 314°
2026-04-14 11:41 30.42119 31.03457 34079 ft 387 kts 314°
2026-04-14 11:42 30.46055 30.99200 34084 ft 387 kts 314°
2026-04-14 11:42 30.49996 30.94938 34101 ft 387 kts 313°
2026-04-14 11:43 30.53902 30.90693 34088 ft 387 kts 313°
2026-04-14 11:43 30.57833 30.86419 34081 ft 388 kts 313°
2026-04-14 11:44 30.61767 30.82137 34071 ft 388 kts 313°
2026-04-14 11:44 30.65716 30.77849 34075 ft 388 kts 313°
2026-04-14 11:45 30.69654 30.73552 34068 ft 388 kts 313°
2026-04-14 11:45 30.73589 30.69255 34079 ft 389 kts 313°
2026-04-14 11:46 30.77531 30.64951 34082 ft 389 kts 313°
2026-04-14 11:46 30.81475 30.60639 34084 ft 389 kts 313°
2026-04-14 11:47 30.85422 30.56319 34101 ft 389 kts 313°
2026-04-14 11:47 30.89361 30.52000 34103 ft 389 kts 313°
2026-04-14 11:48 30.93271 30.47705 34108 ft 389 kts 313°
2026-04-14 11:48 30.97206 30.43381 34111 ft 389 kts 313°
2026-04-14 11:49 31.01143 30.39059 34112 ft 388 kts 312°
2026-04-14 11:49 31.05080 30.34724 34098 ft 389 kts 312°
2026-04-14 11:50 31.08678 30.30068 34093 ft 384 kts 300°
2026-04-14 11:50 31.10776 30.24396 34091 ft 382 kts 287°
2026-04-14 11:51 31.13189 30.15526 34106 ft 383 kts 288°
2026-04-14 11:51 31.14807 30.09610 34103 ft 383 kts 287°
2026-04-14 11:52 31.16404 30.03734 34107 ft 382 kts 287°
2026-04-14 11:52 31.18295 29.97948 34132 ft 384 kts 298°
2026-04-14 11:53 31.21880 29.93280 34137 ft 395 kts 319°
2026-04-14 11:53 31.26731 29.90106 34144 ft 401 kts 325°
2026-04-14 11:54 31.31656 29.87040 34138 ft 401 kts 325°
2026-04-14 11:54 31.36540 29.83984 34133 ft 401 kts 325°
2026-04-14 11:55 31.41484 29.80882 34138 ft 401 kts 324°
2026-04-14 11:55 31.46414 29.77790 34125 ft 403 kts 324°
2026-04-14 11:56 31.51323 29.74705 34121 ft 403 kts 324°
2026-04-14 11:56 31.56269 29.71595 34142 ft 404 kts 324°
2026-04-14 11:57 31.61222 29.68482 34144 ft 403 kts 324°
2026-04-14 11:57 31.66164 29.65371 34146 ft 403 kts 324°
2026-04-14 11:58 31.71100 29.62256 34144 ft 403 kts 324°
2026-04-14 11:58 31.76035 29.59137 34141 ft 403 kts 324°
2026-04-14 11:59 31.80967 29.56020 34138 ft 403 kts 324°
2026-04-14 11:59 31.85900 29.52894 34160 ft 402 kts 324°
2026-04-14 12:00 31.90783 29.49792 34157 ft 401 kts 324°
2026-04-14 12:00 31.95702 29.46671 34154 ft 401 kts 324°
2026-04-14 12:01 32.00621 29.43546 34149 ft 401 kts 324°
2026-04-14 12:01 32.05536 29.40418 34145 ft 401 kts 324°
2026-04-14 12:02 32.10421 29.37302 34142 ft 401 kts 324°
2026-04-14 12:02 32.15334 29.34170 34159 ft 401 kts 324°
2026-04-14 12:03 32.19415 29.31559 34154 ft 400 kts 324°
2026-04-14 12:03 32.24317 29.28425 34157 ft 400 kts 324°
2026-04-14 12:04 32.29228 29.25283 34386 ft 401 kts 324°
2026-04-14 12:04 32.31677 29.23715 34627 ft 400 kts 324°
2026-04-14 12:04 32.34126 29.22144 34826 ft 401 kts 324°
2026-04-14 12:05 32.36575 29.20570 35055 ft 400 kts 324°
2026-04-14 12:05 32.39019 29.18998 35293 ft 399 kts 324°
2026-04-14 12:05 32.41455 29.17425 35520 ft 398 kts 323°
2026-04-14 12:05 32.43882 29.15856 35747 ft 397 kts 323°
2026-04-14 12:06 32.46297 29.14293 35965 ft 396 kts 323°
2026-04-14 12:06 32.48683 29.12749 36120 ft 395 kts 323°
2026-04-14 12:06 32.53506 29.09629 36154 ft 394 kts 324°
2026-04-14 12:07 32.58327 29.06519 36156 ft 394 kts 324°
2026-04-14 12:07 32.63148 29.03413 36154 ft 394 kts 324°
2026-04-14 12:08 32.67964 29.00300 36169 ft 394 kts 324°
2026-04-14 12:08 32.72773 28.97187 36155 ft 393 kts 324°
2026-04-14 12:09 32.77547 28.94086 36149 ft 394 kts 323°
2026-04-14 12:09 32.82353 28.90959 36147 ft 394 kts 323°
2026-04-14 12:10 32.87166 28.87825 36146 ft 394 kts 323°
2026-04-14 12:10 32.91980 28.84695 36146 ft 394 kts 323°
2026-04-14 12:11 32.96797 28.81554 36162 ft 395 kts 324°
2026-04-14 12:11 33.01617 28.78406 36157 ft 395 kts 324°
2026-04-14 12:12 33.06440 28.75243 36156 ft 396 kts 324°
2026-04-14 12:12 33.11273 28.72082 36155 ft 396 kts 324°
2026-04-14 12:13 33.16075 28.68935 36160 ft 396 kts 324°
2026-04-14 12:13 33.20914 28.65764 36166 ft 397 kts 323°
2026-04-14 12:14 33.25756 28.62579 36183 ft 398 kts 324°
2026-04-14 12:14 33.30611 28.59378 36168 ft 399 kts 324°
2026-04-14 12:15 33.35480 28.56167 36165 ft 400 kts 324°
2026-04-14 12:15 33.40359 28.52955 36170 ft 400 kts 324°
2026-04-14 12:16 33.45247 28.49730 36176 ft 401 kts 324°
2026-04-14 12:16 33.50103 28.46527 36181 ft 401 kts 324°
2026-04-14 12:17 33.54983 28.43294 36201 ft 401 kts 324°
2026-04-14 12:17 33.59859 28.40061 36198 ft 400 kts 324°
2026-04-14 12:18 33.64722 28.36831 36202 ft 399 kts 324°
2026-04-14 12:18 33.69583 28.33592 36191 ft 400 kts 324°
2026-04-14 12:19 33.74453 28.30351 36185 ft 400 kts 324°
2026-04-14 12:19 33.79325 28.27101 36186 ft 400 kts 324°
2026-04-14 12:20 33.84160 28.23863 36195 ft 400 kts 323°
2026-04-14 12:20 33.89046 28.20559 36194 ft 400 kts 323°
2026-04-14 12:21 33.93871 28.17291 36188 ft 400 kts 323°
2026-04-14 12:21 33.98721 28.14007 36189 ft 400 kts 323°
2026-04-14 12:22 34.03574 28.10709 36186 ft 400 kts 323°
2026-04-14 12:22 34.08431 28.07418 36212 ft 400 kts 323°
2026-04-14 12:23 34.13294 28.04120 36197 ft 401 kts 323°
2026-04-14 12:23 34.18157 28.00808 36187 ft 402 kts 323°
2026-04-14 12:24 34.23032 27.97490 36182 ft 402 kts 323°
2026-04-14 12:24 34.27905 27.94165 36184 ft 402 kts 323°
2026-04-14 12:25 34.32791 27.90845 36186 ft 403 kts 323°
2026-04-14 12:25 34.37674 27.87518 36205 ft 403 kts 323°
2026-04-14 12:26 34.42549 27.84175 36200 ft 403 kts 323°
2026-04-14 12:26 34.47425 27.80832 36201 ft 403 kts 323°
2026-04-14 12:27 34.52273 27.77514 36200 ft 403 kts 323°
2026-04-14 12:27 34.57148 27.74161 36199 ft 403 kts 322°
2026-04-14 12:28 34.62020 27.70787 36199 ft 402 kts 322°
2026-04-14 12:28 34.66883 27.67410 36211 ft 403 kts 322°
2026-04-14 12:29 34.71747 27.64034 36206 ft 403 kts 322°
2026-04-14 12:29 34.76625 27.60656 36202 ft 403 kts 322°
2026-04-14 12:30 34.81492 27.57282 36201 ft 403 kts 322°
2026-04-14 12:30 34.86353 27.53892 36200 ft 403 kts 322°
2026-04-14 12:31 34.91219 27.50501 36213 ft 403 kts 322°
2026-04-14 12:31 34.96046 27.47131 36211 ft 402 kts 321°
2026-04-14 12:32 35.00906 27.43732 36198 ft 403 kts 321°
2026-04-14 12:32 35.05770 27.40326 36194 ft 403 kts 321°
2026-04-14 12:33 35.10632 27.36914 36192 ft 403 kts 321°
2026-04-14 12:33 35.15510 27.33503 36191 ft 404 kts 321°
2026-04-14 12:34 35.20379 27.30088 36190 ft 404 kts 321°
2026-04-14 12:34 35.25247 27.26661 36194 ft 404 kts 321°
2026-04-14 12:35 35.30122 27.23231 36192 ft 404 kts 321°
2026-04-14 12:35 35.34990 27.19794 36192 ft 404 kts 321°
2026-04-14 12:36 35.39853 27.16355 36202 ft 404 kts 321°
2026-04-14 12:36 35.44877 27.13163 36212 ft 410 kts 326°
2026-04-14 12:37 35.50042 27.10266 36207 ft 411 kts 326°
2026-04-14 12:37 35.55243 27.07361 36202 ft 410 kts 326°
2026-04-14 12:38 35.63034 27.02978 36197 ft 410 kts 326°
2026-04-14 12:39 35.68220 27.00041 36194 ft 410 kts 326°
2026-04-14 12:39 35.73403 26.97109 36199 ft 410 kts 326°
2026-04-14 12:40 35.78564 26.94183 36182 ft 411 kts 326°
2026-04-14 12:40 35.83762 26.91237 36176 ft 412 kts 326°
2026-04-14 12:41 35.88969 26.88280 36171 ft 412 kts 326°
2026-04-14 12:41 35.94173 26.85309 36171 ft 412 kts 326°
2026-04-14 12:42 35.99378 26.82325 36187 ft 412 kts 326°
2026-04-14 12:42 36.04581 26.79334 36184 ft 413 kts 326°
2026-04-14 12:43 36.09793 26.76337 36182 ft 413 kts 326°
2026-04-14 12:43 36.14993 26.73328 36178 ft 413 kts 325°
2026-04-14 12:44 36.20199 26.70314 36175 ft 413 kts 326°
2026-04-14 12:44 36.25414 26.67316 36190 ft 413 kts 326°
2026-04-14 12:45 36.33202 26.62838 36192 ft 413 kts 325°
2026-04-14 12:45 36.38403 26.59817 36189 ft 413 kts 325°
2026-04-14 12:46 36.43602 26.56792 36185 ft 413 kts 325°
2026-04-14 12:46 36.48803 26.53764 36194 ft 413 kts 325°
2026-04-14 12:47 36.54030 26.50726 36174 ft 414 kts 325°
2026-04-14 12:47 36.59252 26.47681 36168 ft 415 kts 325°
2026-04-14 12:48 36.64473 26.44621 36173 ft 415 kts 325°
2026-04-14 12:48 36.69668 26.41577 36172 ft 415 kts 325°
2026-04-14 12:49 36.74894 26.38512 36193 ft 415 kts 325°
2026-04-14 12:49 36.80124 26.35440 36196 ft 415 kts 325°
2026-04-14 12:50 36.87956 26.30829 36188 ft 415 kts 325°
2026-04-14 12:51 36.93181 26.27748 36193 ft 414 kts 325°
2026-04-14 12:51 36.97511 26.25176 36189 ft 414 kts 324°
2026-04-14 12:52 37.03551 26.21517 36185 ft 415 kts 324°
2026-04-14 12:52 37.08747 26.18320 36174 ft 416 kts 324°
2026-04-14 12:53 37.13115 26.15655 36176 ft 417 kts 324°
2026-04-14 12:53 37.18334 26.12478 36171 ft 418 kts 324°
2026-04-14 12:54 37.23560 26.09281 36174 ft 418 kts 324°
2026-04-14 12:54 37.28758 26.06095 36187 ft 418 kts 324°
2026-04-14 12:55 37.33982 26.02880 36190 ft 418 kts 324°
2026-04-14 12:55 37.39203 25.99658 36186 ft 418 kts 324°
2026-04-14 12:56 37.44425 25.96446 36187 ft 418 kts 324°
2026-04-14 12:56 37.49646 25.93227 36187 ft 418 kts 324°
2026-04-14 12:57 37.54887 25.89988 36179 ft 420 kts 324°
2026-04-14 12:57 37.60140 25.86725 36166 ft 421 kts 324°
2026-04-14 12:58 37.65404 25.83452 36160 ft 422 kts 324°
2026-04-14 12:58 37.70646 25.80195 36165 ft 423 kts 324°
2026-04-14 12:59 37.75932 25.76910 36167 ft 423 kts 324°
2026-04-14 12:59 37.81221 25.73614 36169 ft 423 kts 324°
2026-04-14 13:00 37.86504 25.70311 36176 ft 424 kts 324°
2026-04-14 13:00 37.91786 25.67003 36182 ft 424 kts 324°
2026-04-14 13:01 37.97035 25.63705 36194 ft 424 kts 324°
2026-04-14 13:01 38.02326 25.60387 36210 ft 424 kts 324°
2026-04-14 13:02 38.07625 25.57061 36194 ft 425 kts 324°
2026-04-14 13:02 38.12916 25.53722 36194 ft 425 kts 324°
2026-04-14 13:03 38.18210 25.50375 36185 ft 425 kts 324°
2026-04-14 13:03 38.23508 25.47033 36184 ft 425 kts 324°
2026-04-14 13:04 38.28816 25.43675 36198 ft 425 kts 324°
2026-04-14 13:04 38.34078 25.40330 36194 ft 425 kts 324°
2026-04-14 13:05 38.39381 25.36968 36192 ft 426 kts 324°
2026-04-14 13:05 38.44683 25.33601 36191 ft 425 kts 324°
2026-04-14 13:06 38.49979 25.30224 36196 ft 426 kts 323°
2026-04-14 13:06 38.55281 25.26842 36201 ft 426 kts 324°
2026-04-14 13:07 38.60585 25.23458 36199 ft 426 kts 324°
2026-04-14 13:07 38.65895 25.20053 36194 ft 426 kts 323°
2026-04-14 13:08 38.71155 25.16667 36190 ft 426 kts 323°
2026-04-14 13:08 38.76459 25.13259 36213 ft 426 kts 323°
2026-04-14 13:09 38.81763 25.09858 36207 ft 426 kts 323°
2026-04-14 13:09 38.87056 25.06448 36197 ft 426 kts 323°
2026-04-14 13:10 38.92356 25.03028 36194 ft 426 kts 323°
2026-04-14 13:10 38.97640 24.99602 36190 ft 426 kts 323°
2026-04-14 13:11 39.02944 24.96159 36188 ft 427 kts 323°
2026-04-14 13:11 39.08262 24.92702 36172 ft 429 kts 323°
2026-04-14 13:12 39.13614 24.89264 36169 ft 431 kts 324°
2026-04-14 13:12 39.18995 24.85932 36171 ft 432 kts 324°
2026-04-14 13:13 39.24433 24.82607 36188 ft 433 kts 324°
2026-04-14 13:13 39.29867 24.79249 36186 ft 433 kts 324°
2026-04-14 13:14 39.35292 24.75860 36186 ft 433 kts 324°
2026-04-14 13:14 39.40721 24.72466 36188 ft 433 kts 324°
2026-04-14 13:15 39.46152 24.69083 36190 ft 433 kts 324°
2026-04-14 13:15 39.51340 24.65317 36206 ft 419 kts 313°
2026-04-14 13:16 39.55905 24.60671 36200 ft 417 kts 312°
2026-04-14 13:16 39.60439 24.56054 36199 ft 417 kts 312°
2026-04-14 13:17 39.65000 24.51403 36197 ft 417 kts 312°
2026-04-14 13:17 39.69558 24.46748 36196 ft 417 kts 312°
2026-04-14 13:18 39.74116 24.42078 36196 ft 417 kts 312°
2026-04-14 13:18 39.78673 24.37400 36225 ft 417 kts 312°
2026-04-14 13:19 39.83224 24.32715 36212 ft 417 kts 312°
2026-04-14 13:19 39.87774 24.28022 36206 ft 417 kts 312°
2026-04-14 13:20 39.92337 24.23327 36203 ft 418 kts 312°
2026-04-14 13:20 39.96891 24.18624 36201 ft 418 kts 312°
2026-04-14 13:21 40.01417 24.13934 36205 ft 418 kts 312°
2026-04-14 13:21 40.05965 24.09219 36219 ft 417 kts 312°
2026-04-14 13:22 40.10509 24.04503 36215 ft 417 kts 312°
2026-04-14 13:22 40.15049 23.99775 36216 ft 417 kts 312°
2026-04-14 13:23 40.19587 23.95043 36212 ft 417 kts 312°
2026-04-14 13:23 40.24131 23.90309 36214 ft 417 kts 312°
2026-04-14 13:24 40.28663 23.85572 36205 ft 417 kts 312°
2026-04-14 13:24 40.35436 23.78462 36219 ft 417 kts 312°
2026-04-14 13:25 40.39976 23.73702 36219 ft 417 kts 312°
2026-04-14 13:26 40.49050 23.64130 36201 ft 419 kts 311°
2026-04-14 13:26 40.53592 23.59328 36217 ft 419 kts 312°
2026-04-14 13:27 40.58141 23.54520 36226 ft 419 kts 312°
2026-04-14 13:27 40.62683 23.49704 36223 ft 419 kts 312°
2026-04-14 13:28 40.67222 23.44879 36221 ft 419 kts 312°
2026-04-14 13:28 40.71755 23.40055 36217 ft 420 kts 312°
2026-04-14 13:29 40.76302 23.35207 36209 ft 421 kts 312°
2026-04-14 13:29 40.80863 23.30339 36231 ft 422 kts 312°
2026-04-14 13:30 40.85402 23.25496 36227 ft 422 kts 312°
2026-04-14 13:30 40.89966 23.20611 36219 ft 422 kts 311°
2026-04-14 13:31 40.94522 23.15714 36217 ft 422 kts 311°
2026-04-14 13:31 40.99077 23.10810 36219 ft 422 kts 311°
2026-04-14 13:32 41.03638 23.05902 36214 ft 423 kts 311°
2026-04-14 13:32 41.08205 23.00962 36224 ft 423 kts 312°
2026-04-14 13:33 41.13055 22.96398 36219 ft 431 kts 318°
2026-04-14 13:33 41.18044 22.92088 36203 ft 431 kts 318°
2026-04-14 13:34 41.25584 22.85545 36204 ft 431 kts 318°
2026-04-14 13:35 41.30613 22.81182 36209 ft 431 kts 318°
2026-04-14 13:35 41.35894 22.77237 36214 ft 440 kts 326°
2026-04-14 13:36 41.41407 22.73675 36202 ft 441 kts 326°
2026-04-14 13:36 41.46929 22.70100 36193 ft 441 kts 326°
2026-04-14 13:37 41.52418 22.66535 36192 ft 442 kts 325°
2026-04-14 13:37 41.57941 22.62928 36197 ft 442 kts 326°
2026-04-14 13:38 41.63463 22.59321 36193 ft 442 kts 326°
2026-04-14 13:38 41.68997 22.55701 36182 ft 442 kts 326°
2026-04-14 13:39 41.74517 22.52085 36184 ft 442 kts 326°
2026-04-14 13:39 41.80042 22.48460 36197 ft 442 kts 327°
2026-04-14 13:40 41.85560 22.44833 36195 ft 441 kts 327°
2026-04-14 13:40 41.91071 22.41209 36178 ft 441 kts 327°
2026-04-14 13:41 41.95645 22.38186 36172 ft 441 kts 327°
2026-04-14 13:41 42.02420 22.34901 36169 ft 450 kts 338°
2026-04-14 13:42 42.08465 22.32670 36160 ft 451 kts 338°
2026-04-14 13:42 42.13506 22.30813 36159 ft 451 kts 338°
2026-04-14 13:43 42.19596 22.28541 36155 ft 451 kts 338°
2026-04-14 13:43 42.25601 22.26276 36162 ft 451 kts 338°
2026-04-14 13:44 42.31317 22.23115 36156 ft 439 kts 322°
2026-04-14 13:44 42.36039 22.18081 36138 ft 430 kts 313°
2026-04-14 13:45 42.40536 22.12721 36142 ft 431 kts 313°
2026-04-14 13:45 42.45048 22.07362 36151 ft 432 kts 314°
2026-04-14 13:46 42.49555 22.01985 36126 ft 432 kts 313°
2026-04-14 13:46 42.54036 21.96612 36114 ft 433 kts 313°
2026-04-14 13:47 42.58542 21.91190 36109 ft 433 kts 313°
2026-04-14 13:47 42.63053 21.85756 36108 ft 433 kts 313°
2026-04-14 13:48 42.67561 21.80319 36107 ft 433 kts 313°
2026-04-14 13:48 42.72073 21.74860 36113 ft 434 kts 313°
2026-04-14 13:49 42.76584 21.69396 36106 ft 434 kts 313°
2026-04-14 13:49 42.81065 21.63964 36107 ft 434 kts 313°